Regional Weather Roundup
Issued by NWS

Home | Current Version | Previous Version | Graphics & Text | Print | Product List | Glossary On
Versions: 1 2 3 4 5 6 7 8 9 10 11 12 13 14 15 16 17 18 19 20 21 22 23 24 25 26 27 28 29 30 31 32 33 34 35 36 37 38 39 40 41 42 43 44 45 46 47 48 49 50
000
ASUS43 KLSX 051159
RWRMO

WEATHER SUMMARY FOR MISSOURI
NATIONAL WEATHER SERVICE SPRINGFIELD MO
700 AM CDT TUE MAY 05 2015

NOTE: "FAIR" INDICATES FEW OR NO CLOUDS BELOW 12,000 FEET WITH NO
       SIGNIFICANT WEATHER AND/OR OBSTRUCTIONS TO VISIBILITY.
       CURRENT SKY AND/OR WEATHER CONDITIONS ARE NOT AVAILABLE FOR
       CHILLICOTHE AND FARMINGTON.

MOZ001>031-035>038-043-044-053-054-051300-
...NORTHERN AND WESTERN MISSOURI...

CITY           SKY/WX    TMP DP  RH WIND       PRES   REMARKS
KANSAS CTY INT MOCLDY    60  59  96 SE8       30.09S FOG
6HR MIN TEMP:  58; 6HR MAX TEMP:  61;

KANSAS C DTWN  MOCLDY    64  59  83 E3        30.09R
6HR MIN TEMP:  62; 6HR MAX TEMP:  65;

LEE`S SUMMIT   PTCLDY    62  59  90 S7        30.11R
6HR MIN TEMP:  61; 6HR MAX TEMP:  63;

ST JOSEPH      CLEAR     58  58 100 CALM      30.09R FOG
6HR MIN TEMP:  56; 6HR MAX TEMP:  62;

CHILLICOTHE      N/A     57  56  96 CALM      30.13R
6HR MIN TEMP:  57; 6HR MAX TEMP:  62;

KIRKSVILLE     CLOUDY    60  60 100 CALM      30.14R
6HR MIN TEMP:  56; 6HR MAX TEMP:  63;


$$
MOZ066>068-077>081-088>096-101>105-051300-
...SOUTHWEST MISSOURI...

CITY           SKY/WX    TMP DP  RH WIND       PRES   REMARKS
SPRINGFIELD    CLEAR     62  55  77 SE9       30.15R
6HR MIN TEMP:  59; 6HR MAX TEMP:  63;

JOPLIN         PTCLDY    63  55  75 S10       30.11S
6HR MIN TEMP:  61; 6HR MAX TEMP:  65;


$$
MOZ032>034-039>042-045>050-055>058-069>072-051300-
...CENTRAL MISSOURI...

CITY           SKY/WX    TMP DP  RH WIND       PRES   REMARKS
COLUMBIA       PTCLDY    62  56  80 S6        30.14R
6HR MIN TEMP:  62; 6HR MAX TEMP:  69;

JEFFERSON CITY CLOUDY    62  55  77 SE3       30.15R
6HR MIN TEMP:  62; 6HR MAX TEMP:  71;

ROLLA          MOCLDY    62  56  80 S8        30.16R
6HR MIN TEMP:  59; 6HR MAX TEMP:  68;

SEDALIA        FAIR      64  56  75 S7        30.13S
6HR MIN TEMP:  61; 6HR MAX TEMP:  72;

OSAGE BEACH    PTCLDY   N/A N/A N/A SE3       30.15R

$$
MOZ051-052-059>065-051300-
...EAST CENTRAL MISSOURI...

CITY           SKY/WX    TMP DP  RH WIND       PRES   REMARKS
ST LOUIS INTL  PTSUNNY   68  55  63 S7        30.17R
6HR MIN TEMP:  67; 6HR MAX TEMP:  75;

SPIRIT OF STL  MOSUNNY   61  55  81 CALM      30.16R
6HR MIN TEMP:  59; 6HR MAX TEMP:  72;

ST CHARLES     CLOUDY    62  57  83 CALM      30.16R
6HR MIN TEMP:  59; 6HR MAX TEMP:  70;


$$
MOZ072>076-082>087-097>100-106>115-051300-
...SOUTH CENTRAL AND SOUTHEAST MISSOURI...

CITY           SKY/WX    TMP DP  RH WIND       PRES   REMARKS
CAPE GIRARDEAU MOSUNNY   59  56  89 CALM      30.21R
6HR MIN TEMP:  56; 6HR MAX TEMP:  64;

FARMINGTON     MOSUNNY   55  52  88 CALM      30.24R
6HR MIN TEMP:  54; 6HR MAX TEMP:  63;

POPLAR BLUFF   MOSUNNY   57  54  89 CALM      30.20R
6HR MIN TEMP:  56; 6HR MAX TEMP:  60;

WEST PLAINS    CLEAR     54  52  93 CALM      30.20R FOG
6HR MIN TEMP:  52; 6HR MAX TEMP:  67;


$$


USA.gov is the U.S. government's official web portal to all federal, state and local government web resources and services.